Regional Weather Roundup
Issued by NWS

Home | Current Version | Previous Version | Graphics & Text | Print | Product List | Glossary Off
Versions: 1 2 3 4 5 6 7 8 9 10 11 12 13 14 15 16 17 18 19 20 21 22 23 24 25 26 27 28 29 30 31 32 33 34 35 36 37 38 39 40 41 42 43 44 45 46 47 48 49 50

000
ASUS43 KLSX 221007
RWRMO

WEATHER SUMMARY FOR MISSOURI
NATIONAL WEATHER SERVICE SPRINGFIELD MO
500 AM CDT TUE AUG 22 2017

NOTE: "FAIR" INDICATES FEW OR NO CLOUDS BELOW 12,000 FEET WITH NO
       SIGNIFICANT WEATHER AND/OR OBSTRUCTIONS TO VISIBILITY.
       CURRENT SKY AND/OR WEATHER CONDITIONS ARE NOT AVAILABLE FOR
       CHILLICOTHE AND FARMINGTON.

MOZ001>031-035>038-043-044-053-054-221100-
...NORTHERN AND WESTERN MISSOURI...

CITY           SKY/WX    TMP DP  RH WIND       PRES   REMARKS
KANSAS CTY INT CLOUDY    66  64  93 CALM      29.99R
KANSAS C DTWN  CLOUDY    68  66  93 SE5       29.97R
LEE`S SUMMIT   CLOUDY    66  66 100 MISG      29.98F
ST JOSEPH      CLOUDY    65  65 100 N6        30.01R
CHILLICOTHE      N/A     68  68 100 CALM      29.97R
KIRKSVILLE     CLOUDY    66  64  93 S5        29.95S

$$
MOZ066>068-077>081-088>096-101>105-221100-
...SOUTHWEST MISSOURI...

CITY           SKY/WX    TMP DP  RH WIND       PRES   REMARKS
SPRINGFIELD    CLOUDY    77  72  84 SW15G24   29.98F
JOPLIN         CLOUDY    81  74  79 SW18      29.99R
BRANSON        CLOUDY    75  72  88 SW7       30.03F

$$
MOZ032>034-039>042-045>050-055>058-069>072-221100-
...CENTRAL MISSOURI...

CITY           SKY/WX    TMP DP  RH WIND       PRES   REMARKS
COLUMBIA       HVY RAIN  70  70 100 N12       29.97F FOG
JEFFERSON CITY HVY RAIN  72  72 100 VRB3      29.97S FOG
ROLLA          LGT RAIN  72  70  93 N12G22    30.00S
SEDALIA        RAIN      70  70 100 NE3       29.99F FOG
WHITEMAN AFB   TSTM      66  66 100 E7        29.94F
WARRENSBURG    RAIN      64  64 100 NE9       29.97F
OSAGE BEACH    LGT RAIN  71  69  93 VRB5      29.99S

$$
MOZ051-052-059>065-221100-
...EAST CENTRAL MISSOURI...

CITY           SKY/WX    TMP DP  RH WIND       PRES   REMARKS
ST LOUIS INTL  LGT RAIN  72  70  93 N6        29.98S
SPIRIT OF STL  CLOUDY    73  69  87 NE5       29.97R
ST CHARLES     RAIN      70  69  97 VRB5      29.97R FOG

$$
MOZ072>076-082>087-097>100-106>115-221100-
...SOUTH CENTRAL AND SOUTHEAST MISSOURI...

CITY           SKY/WX    TMP DP  RH WIND       PRES   REMARKS
CAPE GIRARDEAU CLEAR     73  72  96 W5        29.98S
FARMINGTON     CLOUDY    78  73  84 SW9       29.99S
POPLAR BLUFF   CLEAR     76  75  97 SW3       29.99R
WEST PLAINS    MOCLDY    76  72  87 SW7       30.02F

$$



USA.gov is the U.S. government's official web portal to all federal, state and local government web resources and services.